STARLINK-4004 (52656 NORAD) Tracking and Keplerian Element Data
This shows tracking and keplerian element data for the satellite.
Feedback or suggestion? Click here.
Element | Value |
Catalog | 52656 |
Name | STARLINK-4004 |
Epoch Orbit | 130 |
Epoch Day | 192.91667824 |
Epoch Year | 2022 |
RAAN | 35.3675 |
Inclination | 53.2175 |
Eccentricity | 0.0001414 |
Argument of Perigee | 59.9132 |
Mean Anonmoly | 279.7576 |
Mean Motion | 15.18468427 |
Decay Rate | -0.00723884 |
L1 | 1 52656U 22053A 22192.91667824 -.00723884 00000+0 -37245-1 0 9990 |
L2 | 2 52656 53.2175 35.3675 0001414 59.9132 279.7576 15.18468427 1300 |
Live tracking and technical data element details for STARLINK-4004 (NORAD 52656). STARLINK-4004 can be tracked NOW for your location showing map with azimuth and elevation plus other details from your city location.
Track the satellite on the map from your city or location and see movement details for azimuth, elevation, latitude, longitude, range, height, and movement on the map or in text.
IsCatalogInMostPopularTable: catalog: 52656, numindb: 6
Update: records affected: 1
GetName: 52656 STARLINK-4004
Hit Count: updated at: Sun, 14 Aug 2022 00:58:36 GMT